Retour au catalogue

STARLINK-4277

ActifCommunicationsVLEO
NORAD 53009·PAYLOAD·🇺🇸 United States

Lancé Jul 7, 2022 depuis Cape Canaveral Space Force Station

Loading…

Prochains Passages (prochaines 24 heures)

TLE

FraisSource: CelesTrak SupGP

Époque: Sep 14, 2026, 21:06 UTC

1 53009C 22076Z   26257.87965278 -.00015907  00000+0 -45515-3 0  2571
2 53009  53.1587 307.8467 0001130  80.7245 258.3496 15.35403986    16

Suivez STARLINK-4277 en temps réel avec AllMySat

Download on the App Store